Location: Gretna
(49.0079°N, 97.5611°W)
Time: 09:32:55
(UTC-05:00)

Envisat - Visible Passes

Search period start: 18 August 2018 00:00
Search period end: 28 August 2018 00:00
Orbit: 764 x 766 km, 98.2° (Epoch: 18 August)

Date Brightness Start Highest point End Pass type
(mag) Time Alt. Az. Time Alt. Az. Time Alt. Az.
18 Aug 6.0 22:18:18 10° WSW 22:19:52 11° W 22:21:26 10° WNW visible
19 Aug 5.4 21:38:36 10° SW 21:42:38 23° W 21:46:42 10° NW visible
21 Aug 5.8 22:05:51 10° WSW 22:08:31 14° W 22:11:13 10° NW visible
22 Aug 5.1 21:27:00 10° SSW 21:31:22 29° W 21:35:45 10° NW visible
24 Aug 5.7 21:53:50 10° SW 21:57:12 18° W 22:00:35 10° NW visible
25 Aug 4.7 21:15:29 10° SSW 21:20:06 35° W 21:24:46 10° NNW visible
26 Aug 6.2 22:22:34 10° W 22:23:09 10° W 22:23:46 10° WNW visible
27 Aug 5.5 21:42:02 10° SW 21:45:54 22° W 21:49:48 10° NW visible
